Weather Roundup
Issued by NWS

Home | Current Version | Previous Version | Graphics & Text | Print | Product List | Glossary Off
Versions: 1 2 3 4 5 6 7 8 9 10 11 12 13 14 15 16 17 18 19 20 21 22 23 24 25 26 27 28 29 30 31 32 33 34 35 36 37 38 39 40 41 42 43 44 45 46 47 48 49 50

000
NZUS93 KARX 270910
HRRWXR

CURRENT HOURLY OBSERVATIONS ACROSS
MUCH OF THE UPPER MISSISSIPPI VALLEY
NATIONAL WEATHER SERVICE LA CROSSE WI
400 AM CDT MON APR 27 2015


...SOUTHEAST MINNESOTA...


CITY           SKY/WX    TMP DP  RH WIND       PRES   REMARKS
ROCHESTER      CLEAR     37  27  67 N7        30.15S WCI  32
ROCHESTER/MAYO FAIR      41  29  63 CALM      30.16S
WINONA         CLEAR     37  32  81 NW5       30.16S WCI  34
AUSTIN         CLEAR     37  28  70 N5        30.15R WCI  34
ALBERT LEA     CLEAR     39  28  65 N5        30.15S
DODGE CENTER   CLEAR     39  27  60 N6        30.16R WCI  35
PRESTON        CLEAR     38  26  61 NW3       30.15R
OWATONNA       CLEAR     32  23  69 CALM      30.17S
FARIBAULT      CLEAR     34  27  75 N3        30.18S
$$

...ELSEWHERE IN MINNESOTA...


CITY           SKY/WX    TMP DP  RH WIND       PRES   REMARKS
MINNEAPOLIS    CLEAR     42  30  62 N5        30.20R
INTNL FALLS    CLEAR     29  23  78 CALM      30.19R
DULUTH         CLEAR     30  22  72 CALM      30.18R
RED WING       CLEAR     34  27  75 CALM      30.17R
REDWOOD FALLS  CLEAR     41  22  46 CALM      30.19R
MANKATO        CLEAR     45  27  49 NE3       30.18R
WORTHINGTON    CLEAR     34  19  55 N7        30.17S WCI  28
FAIRMONT       FAIR      36  23  60 NW6       30.16S WCI  31
$$

...SOUTHWEST WISCONSIN...


CITY           SKY/WX    TMP DP  RH WIND       PRES   REMARKS
LA CROSSE      CLEAR     42  30  62 N6        30.15R
PRAIRIE DU CHI CLEAR     37  30  76 CALM      30.13R
BOSCOBEL       CLEAR     34  29  82 CALM      30.14R
LONE ROCK      CLEAR     36  29  75 CALM      30.13R
PLATTEVILLE    CLEAR     37  29  71 NE7       30.11R WCI  32
FORT MC COY    CLEAR     30  26  84 CALM      30.15S
CAMP DOUGLAS   CLEAR     29  29 100 SW2       30.13R
VIROQUA        FAIR      39  28  63 E5        30.13R
WIS DELLS      CLEAR     32  28  83 W3        30.12R
$$

...ELSEWHERE IN WISCONSIN...


CITY           SKY/WX    TMP DP  RH WIND       PRES   REMARKS
MILWAUKEE      CLEAR     39  29  67 NW7       30.08S WCI  34
MADISON        CLEAR     34  29  82 CALM      30.11S
GREEN BAY      CLEAR     39  30  70 NW6       30.10S WCI  35
EAU CLAIRE     CLEAR     37  25  61 CALM      30.17R
BLACK RVR FLS  FAIR      30  26  83 CALM      30.15R
MEDFORD        CLEAR     34  27  76 CALM      30.14R
WAUSAU         FAIR      38  29  70 N3        30.12S
WIS RAPIDS     CLEAR     35  28  75 CALM      30.14R
MARSHFIELD     CLEAR     39  29  67 CALM      30.13R
RICE LAKE      CLEAR     33  29  85 CALM      30.19R
$$

...NORTHEAST IOWA...


CITY           SKY/WX    TMP DP  RH WIND       PRES   REMARKS
DECORAH        CLEAR     41  27  56 CALM      30.12R
MASON CITY     CLEAR     33  27  78 N9        30.14F WCI  25
CHARLES CITY   CLEAR     41  28  60 NE10      30.13S
OELWEIN        CLEAR     41  30  65 NE12      30.10F
$$

...ELSEWHERE IN IOWA...


CITY           SKY/WX    TMP DP  RH WIND       PRES   REMARKS
DES MOINES     CLEAR     42  33  70 CALM      30.11R
IOWA CITY      CLEAR     39  32  76 N6        30.08S WCI  35
FORT DODGE     CLEAR     36  28  75 N3        30.13S
$$

...NORTHERN ILLINOIS...


CITY           SKY/WX    TMP DP  RH WIND       PRES   REMARKS
CHICAGO-OHARE  CLEAR     39  30  70 N7        30.05F WCI  34
CHICAGO-MIDWAY CLEAR     43  32  65 N12       30.05F
MOLINE         CLEAR     34  32  92 CALM      30.07S
ROCKFORD       CLEAR     37  28  70 CALM      30.11F
PEORIA         CLEAR     38  34  85 N3        30.07R
$$

NOTE: "FAIR" INDICATES FEW OR NO CLOUDS BELOW 12,000 FEET WITH NO
SIGNIFICANT WEATHER AND/OR OBSTRUCTIONS TO VISIBILITY. WIND
SPEEDS ARE IN MILES-PER-HOUR.



USA.gov is the U.S. government's official web portal to all federal, state and local government web resources and services.